Year,Month,Day,Hour,Minute,Value (Times are PST for temperature in C)
2023,04,25,00,03,6.40
2023,04,25,00,08,6.40
2023,04,25,00,13,6.40
2023,04,25,00,18,6.40
2023,04,25,00,23,6.30
2023,04,25,00,28,6.20
2023,04,25,00,33,6.30
2023,04,25,00,38,6.20
2023,04,25,00,43,6.20
2023,04,25,00,48,6.20
2023,04,25,00,53,6.20
2023,04,25,00,58,6.10
2023,04,25,01,03,6.10
2023,04,25,01,08,6.10
2023,04,25,01,13,6.10
2023,04,25,01,18,6.10
2023,04,25,01,23,5.90
2023,04,25,01,28,5.70
2023,04,25,01,33,5.50
2023,04,25,01,38,5.50
2023,04,25,01,43,5.50
2023,04,25,01,48,5.50
2023,04,25,01,53,5.50
2023,04,25,01,58,5.30
2023,04,25,02,03,5.30
2023,04,25,02,08,5.20
2023,04,25,02,13,5.20
2023,04,25,02,18,5.10
2023,04,25,02,23,5.00
2023,04,25,02,28,4.90
2023,04,25,02,33,5.00
2023,04,25,02,38,5.00
2023,04,25,02,48,5.00
2023,04,25,02,53,5.00
2023,04,25,02,58,5.10
2023,04,25,03,03,5.20
2023,04,25,03,08,5.40
2023,04,25,03,13,5.30
2023,04,25,03,18,5.40
2023,04,25,03,23,5.30
2023,04,25,03,28,5.20
2023,04,25,03,33,5.20
2023,04,25,03,38,5.30
2023,04,25,03,43,5.30
2023,04,25,03,48,5.30
2023,04,25,03,53,5.20
2023,04,25,03,58,5.10
2023,04,25,04,03,4.90
2023,04,25,04,08,4.80
2023,04,25,04,13,4.80
2023,04,25,04,18,4.70
2023,04,25,04,23,4.70
2023,04,25,04,28,4.90
2023,04,25,04,33,5.00
2023,04,25,04,38,5.00
2023,04,25,04,43,5.10
2023,04,25,04,48,4.90
2023,04,25,04,53,4.90
2023,04,25,04,58,4.80
2023,04,25,05,03,4.70
2023,04,25,05,08,4.80
2023,04,25,05,13,4.90
2023,04,25,05,18,4.90
2023,04,25,05,23,4.90
2023,04,25,05,28,4.90
2023,04,25,05,33,4.80
2023,04,25,05,38,4.90
2023,04,25,05,43,4.80
2023,04,25,05,48,4.80
2023,04,25,05,53,4.90
2023,04,25,05,58,4.80
2023,04,25,06,03,4.90
2023,04,25,06,08,5.00
2023,04,25,06,13,5.10
2023,04,25,06,18,5.30
2023,04,25,06,23,5.50
2023,04,25,06,28,5.50
2023,04,25,06,33,5.60
2023,04,25,06,38,5.60
2023,04,25,06,43,5.70
2023,04,25,06,48,5.80
2023,04,25,06,53,5.90
2023,04,25,06,58,5.90
2023,04,25,07,03,6.00
2023,04,25,07,08,6.10
2023,04,25,07,13,6.20
2023,04,25,07,18,6.20
2023,04,25,07,23,6.20
2023,04,25,07,28,6.40
2023,04,25,07,33,6.40
2023,04,25,07,38,6.50
2023,04,25,07,43,6.60
2023,04,25,07,48,6.70
2023,04,25,07,53,6.70
2023,04,25,07,58,6.80
2023,04,25,08,03,7.20
2023,04,25,08,08,8.30
2023,04,25,08,13,8.70
2023,04,25,08,18,8.70
2023,04,25,08,23,9.20
2023,04,25,08,28,9.90
2023,04,25,08,33,9.30
2023,04,25,08,38,9.20
2023,04,25,08,43,9.00
2023,04,25,08,48,9.20
2023,04,25,08,53,9.50
2023,04,25,08,58,10.00
2023,04,25,09,03,11.10
2023,04,25,09,08,11.60
2023,04,25,09,13,12.30
2023,04,25,09,18,12.30
2023,04,25,09,23,12.80
2023,04,25,09,28,13.30
2023,04,25,09,38,14.20
2023,04,25,09,43,14.30
2023,04,25,09,48,14.70
2023,04,25,09,53,14.50
2023,04,25,09,58,14.40
2023,04,25,10,03,14.10
2023,04,25,10,08,14.30
2023,04,25,10,13,14.30
2023,04,25,10,23,14.20
2023,04,25,10,28,14.00
2023,04,25,10,33,13.80
2023,04,25,10,38,13.90
2023,04,25,10,43,13.90
2023,04,25,10,48,13.30
2023,04,25,10,53,13.80
2023,04,25,11,03,13.40
2023,04,25,11,08,12.90
2023,04,25,11,13,13.00
2023,04,25,11,18,12.50
2023,04,25,11,23,12.50
2023,04,25,11,28,12.20
2023,04,25,11,33,12.40
2023,04,25,11,38,12.70
2023,04,25,11,43,13.20
2023,04,25,11,48,13.40
2023,04,25,11,53,13.40
2023,04,25,11,58,13.00
2023,04,25,12,03,13.20
2023,04,25,12,08,13.60
2023,04,25,12,13,13.70
2023,04,25,12,18,13.40
2023,04,25,12,23,13.60
2023,04,25,12,28,14.10
2023,04,25,12,33,14.50
2023,04,25,12,38,14.50
2023,04,25,12,43,13.60
2023,04,25,12,48,13.40
2023,04,25,12,53,12.70
2023,04,25,12,58,13.60
2023,04,25,13,03,11.90
2023,04,25,13,08,11.70
2023,04,25,13,13,11.30
2023,04,25,13,18,11.30
2023,04,25,13,23,11.80
2023,04,25,13,28,12.30
2023,04,25,13,33,12.30
2023,04,25,13,38,12.50
2023,04,25,13,43,12.30
2023,04,25,13,48,13.30
2023,04,25,13,53,13.70
2023,04,25,13,58,13.20
2023,04,25,14,03,13.90
2023,04,25,14,08,14.70
2023,04,25,14,13,14.80
2023,04,25,14,18,15.30
2023,04,25,14,23,15.50
2023,04,25,14,28,15.80
2023,04,25,14,33,14.60
2023,04,25,14,38,15.00
2023,04,25,14,43,13.60
2023,04,25,14,48,14.20
2023,04,25,14,53,14.30
2023,04,25,14,58,14.20
2023,04,25,15,03,13.90
2023,04,25,15,08,13.40
2023,04,25,15,13,13.40
2023,04,25,15,18,13.30
2023,04,25,15,23,12.80
2023,04,25,15,28,12.80
2023,04,25,15,33,12.90
2023,04,25,15,38,12.50
2023,04,25,15,43,12.60
2023,04,25,15,48,12.60
2023,04,25,15,53,12.20
2023,04,25,15,58,12.20
2023,04,25,16,03,12.10
2023,04,25,16,08,11.80
2023,04,25,16,13,12.00
2023,04,25,16,18,12.00
2023,04,25,16,23,11.90
2023,04,25,16,28,11.80
2023,04,25,16,33,11.70
2023,04,25,16,38,11.60
2023,04,25,16,43,11.60
2023,04,25,16,48,11.50
2023,04,25,16,53,11.40
2023,04,25,16,58,11.30
2023,04,25,17,03,11.20
2023,04,25,17,08,11.20
2023,04,25,17,13,11.10
2023,04,25,17,18,11.10
2023,04,25,17,23,11.20
2023,04,25,17,28,11.20
2023,04,25,17,33,11.30
2023,04,25,17,38,11.30
2023,04,25,17,43,11.40
2023,04,25,17,48,11.30
2023,04,25,17,53,11.10
2023,04,25,17,58,11.10
2023,04,25,18,03,11.10
2023,04,25,18,08,11.10
2023,04,25,18,13,11.10
2023,04,25,18,18,11.10
2023,04,25,18,23,11.00
2023,04,25,18,28,10.90
2023,04,25,18,33,10.80
2023,04,25,18,38,10.70
2023,04,25,18,43,10.60
2023,04,25,18,48,10.60
2023,04,25,18,53,10.50
2023,04,25,18,58,10.50
2023,04,25,19,03,10.40
2023,04,25,19,08,10.30
2023,04,25,19,13,10.30
2023,04,25,19,18,10.30
2023,04,25,19,23,10.30
2023,04,25,19,28,10.20
2023,04,25,19,33,10.10
2023,04,25,19,38,10.10
2023,04,25,19,43,10.00
2023,04,25,19,48,10.00
2023,04,25,19,53,10.00
2023,04,25,19,58,9.90
2023,04,25,20,03,9.90
2023,04,25,20,08,9.90
2023,04,25,20,13,9.80
2023,04,25,20,18,9.80
2023,04,25,20,23,9.70
2023,04,25,20,28,9.60
2023,04,25,20,33,9.60
2023,04,25,20,38,9.50
2023,04,25,20,43,9.40
2023,04,25,20,48,9.30
2023,04,25,20,53,9.30
2023,04,25,20,58,9.20
2023,04,25,21,03,9.20
2023,04,25,21,08,9.20
2023,04,25,21,13,9.00
2023,04,25,21,18,9.00
2023,04,25,21,23,9.00
2023,04,25,21,28,9.00
2023,04,25,21,33,9.00
2023,04,25,21,38,9.00
2023,04,25,21,43,8.90
2023,04,25,21,48,8.80
2023,04,25,21,53,8.70
2023,04,25,21,58,8.60
2023,04,25,22,03,8.50
2023,04,25,22,08,8.40
2023,04,25,22,13,8.50
2023,04,25,22,18,8.30
2023,04,25,22,23,8.30
2023,04,25,22,28,8.30
2023,04,25,22,33,8.30
2023,04,25,22,38,8.30
2023,04,25,22,43,8.30
2023,04,25,22,48,8.30
2023,04,25,22,53,8.30
2023,04,25,22,58,8.40
2023,04,25,23,03,8.40
2023,04,25,23,08,8.40
2023,04,25,23,13,8.30
2023,04,25,23,18,8.30
2023,04,25,23,23,8.40
2023,04,25,23,28,8.40
2023,04,25,23,33,8.40
2023,04,25,23,43,8.60
2023,04,25,23,48,8.80
2023,04,25,23,53,8.70
2023,04,25,23,58,8.70
